JH4GLG-13 Weather Reports


Display with metric or nautical units.
time (UTC)temp
F
wind
direction
speed
MPH
gust
MPH
rain 1hr
in
rain 24hr
in
rain mn
in
humidity
%
barometer
mb
20260508084200 70 0 0.0 0.0 0.00 0.00 0.00 41 1009.9
20260508082701 72 0 0.0 0.0 0.00 0.00 0.00 42 1009.6
20260508081159 72 0 0.0 0.0 0.00 0.00 0.00 42 1009.4
20260508075700 73 0 0.0 0.0 0.00 0.00 0.00 38 1008.9
20260508074159 75 0 0.0 0.0 0.00 0.00 0.00 40 1008.6
20260508072742 76 0 0.0 0.0 0.00 0.00 0.00 41 1008.4
20260508072701 76 0 0.0 0.0 0.00 0.00 0.00 41 1008.4
20260508071159 76 0 0.0 0.0 0.00 0.00 0.00 44 1008.2
20260508065700 77 0 0.0 0.0 0.00 0.00 0.00 46 1008.1
20260508064159 77 0 0.0 0.0 0.00 0.00 0.00 48 1007.8
20260508062745 77 0 0.0 0.0 0.00 0.00 0.00 50 1007.6
20260508062700 77 0 0.0 0.0 0.00 0.00 0.00 50 1007.6
20260508061158 76 0 0.0 0.0 0.00 0.00 0.00 52 1007.6
20260508055700 77 0 0.0 0.0 0.00 0.00 0.00 52 1007.5
20260508054159 75 0 0.0 0.0 0.00 0.00 0.00 57 1007.6
20260508052659 74 0 0.0 0.0 0.00 0.00 0.00 59 1007.6
20260508051158 73 0 0.0 0.0 0.00 0.00 0.00 60 1007.9
20260508045658 73 0 0.0 0.0 0.00 0.00 0.00 63 1007.8
20260508044158 73 0 0.0 0.0 0.00 0.00 0.00 64 1007.9
20260508042659 72 0 0.0 0.0 0.00 0.00 0.00 65 1007.9
20260508041157 72 0 0.0 0.0 0.00 0.00 0.00 66 1008.0
20260508035659 72 0 0.0 0.0 0.00 0.00 0.00 66 1008.1
20260508034158 72 0 0.0 0.0 0.00 0.00 0.00 67 1007.9
20260508032658 74 0 0.0 0.0 0.00 0.00 0.00 63 1007.7
20260508031157 75 0 0.0 0.0 0.00 0.00 0.00 60 1007.8
20260508025657 74 0 0.0 0.0 0.00 0.00 0.00 61 1007.9
20260508024157 74 0 0.0 0.0 0.00 0.00 0.00 60 1007.9
20260508022658 74 0 0.0 0.0 0.00 0.00 0.00 62 1008.1
20260508021156 73 0 0.0 0.0 0.00 0.00 0.00 64 1008.1
20260508015658 73 0 0.0 0.0 0.00 0.00 0.00 69 1008.3
20260508014157 72 0 0.0 0.0 0.00 0.00 0.00 71 1008.5
20260508012657 73 0 0.0 0.0 0.00 0.00 0.00 72 1008.5
20260508011156 74 0 0.0 0.0 0.00 0.00 0.00 67 1008.4
20260508005657 75 0 0.0 0.0 0.00 0.00 0.00 69 1008.3
20260508004156 75 0 0.0 0.0 0.00 0.00 0.00 69 1008.4
20260508002657 72 0 0.0 0.0 0.00 0.00 0.00 74 1008.6
20260508001156 72 0 0.0 0.0 0.00 0.00 0.00 76 1008.6
20260507235750 72 0 0.0 0.0 0.00 0.00 0.00 80 1008.7
20260507235657 72 0 0.0 0.0 0.00 0.00 0.00 80 1008.7
20260507234156 71 0 0.0 0.0 0.00 0.00 0.00 83 1008.7
20260507232656 71 0 0.0 0.0 0.00 0.00 0.00 82 1008.7
20260507231155 70 0 0.0 0.0 0.00 0.00 0.00 86 1009.0
20260507225657 69 0 0.0 0.0 0.00 0.00 0.00 90 1009.1
20260507224155 68 0 0.0 0.0 0.00 0.00 0.00 91 1009.3
20260507222656 68 0 0.0 0.0 0.00 0.00 0.00 92 1009.5
20260507221155 67 0 0.0 0.0 0.00 0.00 0.00 92 1009.4
20260507215656 66 0 0.0 0.0 0.00 0.00 0.00 92 1009.6
20260507214155 65 0 0.0 0.0 0.00 0.00 0.00 93 1009.2
20260507212734 65 0 0.0 0.0 0.00 0.00 0.00 92 1009.1
20260507212655 65 0 0.0 0.0 0.00 0.00 0.00 92 1009.1
20260507211155 65 0 0.0 0.0 0.00 0.00 0.00 92 1009.1
20260507205659 0 0 0.0 0.0 0.00 0.00 0.00 1009.0
20260507205655 65 0 0.0 0.0 0.00 0.00 0.00 92 1009.0
20260507204154 65 0 0.0 0.0 0.00 0.00 0.00 92 1009.2
20260507202655 65 0 0.0 0.0 0.00 0.00 0.00 93 1009.1
20260507201154 65 0 0.0 0.0 0.00 0.00 0.00 92 1009.4
20260507195655 65 0 0.0 0.0 0.00 0.00 0.00 90 1009.0
20260507194153 65 0 0.0 0.0 0.00 0.00 0.00 90 1008.9
20260507192655 65 0 0.0 0.0 0.00 0.00 0.00 90 1009.2
20260507191153 65 0 0.0 0.0 0.00 0.00 0.00 89 1009.2
20260507185654 0 0 0.0 0.0 0.00 0.00 0.00 1009.3
20260507184153 65 0 0.0 0.0 0.00 0.00 0.00 88 1009.2
20260507182654 66 0 0.0 0.0 0.00 0.00 0.00 88 1009.4
20260507181153 66 0 0.0 0.0 0.00 0.00 0.00 87 1009.3
20260507175731 66 0 0.0 0.0 0.00 0.00 0.00 87 1009.4
20260507175654 66 0 0.0 0.0 0.00 0.00 0.00 87 1009.4
20260507174153 66 0 0.0 0.0 0.00 0.00 0.00 87 1009.3
20260507172728 66 0 0.0 0.0 0.00 0.00 0.00 86 1009.4
20260507172654 66 0 0.0 0.0 0.00 0.00 0.00 86 1009.4
20260507171152 66 0 0.0 0.0 0.00 0.00 0.00 86 1009.5
20260507165654 66 0 0.0 0.0 0.00 0.00 0.00 86 1009.8
20260507164153 66 0 0.0 0.0 0.00 0.00 0.00 86 1009.8
20260507162726 66 0 0.0 0.0 0.00 0.00 0.00 84 1010.1
20260507162653 66 0 0.0 0.0 0.00 0.00 0.00 84 1010.1
20260507161152 66 0 0.0 0.0 0.00 0.00 0.00 85 1010.2
20260507155654 66 0 0.0 0.0 0.00 0.00 0.00 85 1010.3
20260507154152 66 0 0.0 0.0 0.00 0.00 0.00 85 1010.5
20260507152653 0 0 0.0 0.0 0.00 0.00 0.00 1010.5
20260507151152 0 0 0.0 0.0 0.00 0.00 0.00 1010.5
20260507145731 66 0 0.0 0.0 0.00 0.00 0.00 84 1010.7
20260507145657 66 0 0.0 0.0 0.00 0.00 0.00 84 1010.7
20260507145653 66 0 0.0 0.0 0.00 0.00 0.00 84 1010.6
20260507144152 66 0 0.0 0.0 0.00 0.00 0.00 83 1010.8
20260507142728 66 0 0.0 0.0 0.00 0.00 0.00 83 1010.8
20260507142652 66 0 0.0 0.0 0.00 0.00 0.00 83 1010.8
20260507141151 67 0 0.0 0.0 0.00 0.00 0.00 82 1010.9
20260507135732 67 0 0.0 0.0 0.00 0.00 0.00 81 1011.0
20260507135652 67 0 0.0 0.0 0.00 0.00 0.00 81 1011.0
20260507134151 67 0 0.0 0.0 0.00 0.00 0.00 81 1011.1
20260507132653 68 0 0.0 0.0 0.00 0.00 0.00 80 1011.1
20260507131151 68 0 0.0 0.0 0.00 0.00 0.00 81 1011.0
20260507125652 68 0 0.0 0.0 0.00 0.00 0.00 79 1011.0
20260507124151 68 0 0.0 0.0 0.00 0.00 0.00 79 1011.1
20260507122656 69 0 0.0 0.0 0.00 0.00 0.00 78 1011.1
20260507122652 69 0 0.0 0.0 0.00 0.00 0.00 78 1011.2
20260507121150 69 0 0.0 0.0 0.00 0.00 0.00 78 1011.2
20260507115651 69 0 0.0 0.0 0.00 0.00 0.00 77 1011.2
20260507114150 69 0 0.0 0.0 0.00 0.00 0.00 76 1011.0
20260507112726 69 0 0.0 0.0 0.00 0.00 0.00 75 1010.9
20260507112652 69 0 0.0 0.0 0.00 0.00 0.00 75 1010.9
20260507111150 70 0 0.0 0.0 0.00 0.00 0.00 75 1010.7
20260507105651 70 0 0.0 0.0 0.00 0.00 0.00 75 1010.6
20260507104150 71 0 0.0 0.0 0.00 0.00 0.00 73 1010.6
20260507102651 71 0 0.0 0.0 0.00 0.00 0.00 72 1010.6
20260507101149 71 0 0.0 0.0 0.00 0.00 0.00 70 1010.5
20260507095650 72 0 0.0 0.0 0.00 0.00 0.00 69 1010.5
20260507092650 73 0 0.0 0.0 0.00 0.00 0.00 64 1010.4
20260507091149 73 0 0.0 0.0 0.00 0.00 0.00 63 1010.4
20260507085650 73 0 0.0 0.0 0.00 0.00 0.00 61 1010.3